GFSSW_925_thetae_000.txt.gz
Theta_e
311 309 308 307 308 310 310 310 309 309 309 311 314 313 312 315 317 317 315 312 314 316 312 314 314 316 316 321 320 320 324 323 319 319 319 317 316 314 315 314 313 313 308 308 307
314 309 309 309 309 310 311 311 310 311 311 311 314 314 315 316 319 316 312 314 315 315 313 314 316 316 319 320 321 321 325 320 317 316 317 316 315 314 314 312 312 311 307 307 305
316 309 310 311 310 310 312 312 312 313 312 312 313 314 314 313 321 316 314 314 312 312 312 313 314 318 320 319 319 320 321 318 318 317 315 316 314 314 314 312 310 307 305 305 304
319 312 311 312 311 311 312 313 314 314 313 312 314 315 315 315 322 314 315 313 313 312 313 316 317 317 318 319 318 317 318 318 318 315 314 315 314 312 311 310 306 304 304 303 302
320 315 312 313 312 312 313 314 316 316 315 313 316 316 315 321 317 313 314 312 312 313 314 316 316 316 318 318 317 318 317 316 315 314 314 314 314 313 309 307 304 304 303 301 301
320 317 314 314 313 313 315 315 317 317 314 312 316 316 320 322 313 315 312 312 311 312 314 313 314 314 316 318 317 317 316 315 315 314 314 314 313 313 308 304 303 303 302 300 300
318 318 315 314 313 313 316 318 319 317 315 314 316 317 321 318 313 312 311 312 311 310 314 311 311 315 317 318 315 314 315 314 314 314 314 313 314 312 307 305 303 302 301 301 300
316 319 316 313 313 313 317 319 320 318 313 316 317 318 321 313 315 313 311 312 310 310 310 309 310 313 315 315 315 315 315 317 314 314 313 313 313 307 306 306 301 300 298 298 299
315 318 315 312 312 313 316 321 321 316 312 316 320 318 320 315 317 313 312 310 310 311 310 309 311 315 315 318 317 317 317 314 316 312 313 313 314 307 306 303 300 298 297 297 298
316 317 315 311 311 313 316 322 318 316 315 316 317 320 316 318 316 312 311 310 312 313 315 314 314 315 316 316 314 313 312 313 314 314 312 313 313 307 304 301 298 297 297 296 295
318 318 316 310 310 310 314 316 317 321 314 317 317 316 317 317 312 313 310 311 314 314 319 317 313 316 317 312 311 312 313 313 313 313 311 311 309 307 303 300 298 296 296 296 294
320 319 317 309 309 309 311 314 313 313 314 314 315 316 317 313 314 312 310 313 314 317 318 318 318 312 311 311 314 314 313 312 312 313 310 309 309 306 301 300 298 297 297 296 294
321 320 318 307 308 311 309 309 309 312 317 317 316 318 316 312 314 313 310 312 314 317 316 315 316 310 310 311 313 311 311 311 311 309 307 307 306 304 299 298 298 297 297 294 293
321 320 319 309 312 307 314 306 311 311 318 319 315 317 311 311 313 309 307 309 315 316 311 310 308 311 312 313 311 311 306 307 308 307 306 305 305 306 298 297 297 297 294 293 292
320 320 318 307 306 312 308 307 308 312 323 318 317 310 311 312 312 312 307 308 312 314 310 313 308 308 309 309 310 311 305 305 305 306 305 304 303 306 300 298 298 295 294 293 293
318 319 318 309 306 307 305 308 309 320 322 319 318 317 315 311 313 312 311 308 308 308 308 308 307 308 308 310 308 306 306 306 305 303 305 305 305 307 302 301 296 294 292 293 292
317 318 318 308 311 305 307 313 319 321 318 319 318 316 315 316 317 313 314 311 312 315 315 312 308 307 306 308 308 307 305 306 310 308 309 303 301 303 298 296 294 293 292 292 291
317 317 315 313 306 304 313 313 319 320 320 314 315 314 317 317 317 312 311 311 312 311 310 312 314 309 306 307 305 305 304 305 307 309 307 300 301 303 297 295 294 293 292 291 290
316 316 313 314 307 305 312 317 315 317 320 318 315 318 320 313 313 310 310 311 314 309 310 312 311 302 300 301 302 305 303 302 303 294 298 299 302 298 296 295 294 292 291 290 290
317 314 315 312 305 312 310 317 316 316 314 314 319 318 317 317 312 313 314 313 310 308 305 307 308 304 298 299 298 299 300 301 300 297 300 303 302 302 296 295 293 291 291 290 290
315 315 312 310 307 312 308 312 316 315 315 316 317 317 316 317 317 316 315 311 307 304 303 304 305 303 300 299 300 296 297 297 297 302 301 299 300 296 295 294 292 292 291 290 290
311 317 308 308 314 314 315 314 313 314 313 314 314 315 316 316 317 316 316 315 304 301 302 302 303 303 302 296 295 295 297 297 295 298 296 297 297 298 296 292 291 291 290 290 290
312 314 308 310 316 316 315 314 314 315 312 311 313 314 313 314 315 314 314 302 302 301 301 297 301 307 304 295 294 293 294 294 295 295 295 299 298 294 294 293 290 290 289 289 289
316 314 311 309 311 314 315 316 315 310 311 311 311 312 313 312 312 313 312 301 300 300 298 299 301 306 316 310 296 294 293 293 293 294 296 296 295 296 296 295 290 289 289 288 288
314 315 312 312 312 312 313 315 315 316 311 310 311 311 312 313 313 313 311 299 297 297 296 298 302 302 301 298 297 297 295 293 293 293 294 296 295 296 294 291 289 290 290 289 288
314 313 309 314 312 312 313 315 316 316 316 315 314 313 311 312 313 313 311 309 303 295 297 298 300 301 300 296 295 294 294 293 294 294 293 293 293 294 294 292 289 289 289 288 288
312 313 313 314 315 316 315 315 316 315 316 316 316 314 313 312 310 307 304 306 305 300 299 300 299 298 302 296 296 297 295 294 294 294 293 293 293 294 292 290 290 289 288 287 285

GFSSW_925_thetae_003.txt.gz
Theta_e
313 309 310 311 311 312 313 312 312 313 312 312 315 313 316 317 316 315 312 312 313 316 313 314 315 315 315 318 318 316 319 320 316 316 316 314 315 311 309 308 306 306 305 305 305
317 310 311 313 312 313 315 314 315 314 312 312 314 314 316 317 318 314 312 314 313 313 313 313 312 314 314 317 317 316 318 318 315 315 315 314 313 313 310 308 306 304 303 304 303
319 314 312 314 313 313 316 317 316 316 314 312 315 314 314 313 319 314 314 312 312 313 313 312 313 314 317 317 316 315 317 316 315 314 314 314 311 310 308 308 305 303 301 301 301
320 317 314 315 315 315 316 318 318 317 316 313 316 314 315 316 320 314 314 312 312 314 314 315 313 315 316 317 316 314 315 316 315 313 314 314 311 309 307 305 303 301 301 299 297
318 319 316 316 316 316 317 319 320 319 317 313 316 315 315 318 315 314 312 312 312 314 314 313 313 313 315 316 315 315 316 315 314 314 314 313 311 307 303 302 301 301 299 298 297
315 318 318 317 317 317 318 320 321 321 318 314 316 316 319 320 313 312 311 313 312 313 313 312 312 313 314 316 315 315 315 313 314 314 313 313 309 307 304 301 301 300 298 297 298
313 316 318 317 317 318 319 321 321 321 318 314 316 317 318 319 314 311 311 312 311 311 313 311 311 313 314 315 314 313 313 313 313 313 313 312 312 309 303 301 300 299 297 298 298
312 314 317 316 317 318 320 321 320 320 316 315 316 319 319 314 314 312 311 312 311 311 311 310 311 312 313 313 314 314 313 314 314 312 312 310 309 304 302 299 298 296 295 296 296
312 313 316 315 315 318 320 319 319 318 314 316 320 318 319 315 316 314 311 311 311 311 311 310 311 314 313 315 313 314 313 311 313 312 312 310 310 304 303 298 296 294 294 294 293
311 312 315 314 314 316 318 319 318 317 317 317 317 318 315 317 316 313 311 310 311 311 313 312 310 310 310 311 313 310 309 311 312 312 310 311 310 305 301 298 295 294 293 292 292
311 312 315 314 312 313 317 317 311 314 312 316 315 316 317 317 314 313 310 311 312 312 316 315 312 313 313 310 311 311 311 311 311 312 311 310 310 304 301 296 293 293 292 292 292
310 315 315 315 310 312 311 311 311 312 309 312 314 315 316 314 312 312 310 312 313 314 314 312 314 312 310 310 311 312 312 310 309 309 308 307 307 307 300 297 295 293 293 292 292
313 317 318 317 310 310 308 307 309 311 312 313 315 317 316 312 313 312 309 310 313 314 314 313 314 308 308 309 311 310 309 309 310 307 305 305 304 305 299 297 295 294 294 292 292
316 318 319 318 311 309 313 306 310 310 310 313 313 316 311 310 311 309 307 309 313 316 310 308 308 309 310 311 311 309 307 307 307 305 305 303 304 301 298 298 296 295 291 291 291
315 316 319 314 305 311 309 307 307 311 308 312 316 310 311 311 311 312 307 308 312 313 312 314 306 307 308 308 309 309 305 305 305 304 303 303 301 301 298 297 297 293 291 291 291
315 316 318 312 305 308 305 306 309 313 314 318 316 316 314 311 312 310 310 307 307 307 307 309 306 305 305 309 308 306 307 304 303 301 302 302 301 301 297 299 296 292 290 291 291
314 315 317 315 308 306 307 310 308 312 312 317 316 315 315 314 314 312 312 312 314 315 313 309 307 306 307 308 308 307 302 305 305 304 306 301 300 304 300 298 296 291 290 290 290
314 315 316 314 311 303 312 308 314 311 316 314 313 313 315 315 316 311 310 311 309 309 309 311 313 307 305 306 307 307 301 305 306 306 309 300 303 303 295 293 291 291 290 289 289
313 315 314 315 313 304 304 310 312 311 313 316 314 316 317 314 314 309 307 309 310 307 312 311 310 302 300 302 303 304 302 302 303 288 295 300 299 296 294 292 291 290 289 288 289
314 314 313 313 311 309 303 314 313 311 314 314 318 315 317 314 312 309 311 309 310 306 306 307 309 302 298 299 298 300 300 302 302 308 298 301 302 303 294 293 290 289 289 289 290
313 313 311 310 305 307 307 309 311 312 313 314 314 316 314 314 311 311 313 312 306 302 302 303 304 304 299 299 300 295 298 298 299 303 305 300 303 296 295 294 290 289 289 289 288
313 314 309 305 310 306 313 309 311 312 312 312 312 313 313 313 315 314 315 314 302 301 304 301 302 301 301 298 296 297 298 299 302 303 298 301 303 296 295 291 289 289 289 288 289
313 311 308 309 316 314 313 313 312 312 312 311 312 312 312 313 314 314 314 305 301 302 301 299 300 302 309 295 294 294 293 296 296 298 300 301 300 293 291 289 289 288 288 288 288
310 312 309 308 310 311 313 314 314 311 311 311 310 310 312 311 312 313 312 302 301 300 301 300 301 310 315 313 299 299 293 293 296 299 301 300 299 295 291 289 287 287 288 287 287
310 311 309 310 311 311 312 312 313 314 310 311 312 312 311 312 311 312 310 299 298 300 298 298 301 301 305 304 302 303 301 294 294 296 299 301 300 299 297 294 289 287 288 288 287
312 308 306 306 308 310 311 312 312 311 313 312 311 309 310 311 311 311 312 308 307 296 295 297 301 302 304 302 301 299 298 296 296 296 296 296 296 297 295 289 287 288 288 288 287
314 309 310 310 309 311 310 311 311 311 311 312 311 312 311 310 309 308 307 306 308 300 297 299 300 302 308 302 299 301 299 299 298 297 297 295 296 297 294 289 288 288 288 286 285

GFSSW_925_thetae_006.txt.gz
Theta_e
317 312 313 315 314 313 315 315 315 315 313 313 314 315 316 315 314 313 312 313 313 314 313 314 315 315 314 316 316 313 316 318 315 316 315 313 313 308 304 304 304 303 303 303 301
319 316 314 316 316 315 316 317 317 316 315 313 315 315 317 316 318 314 313 312 313 313 313 312 312 312 313 316 315 314 315 317 314 314 314 313 312 309 306 304 303 302 301 299 300
319 319 316 317 317 317 318 319 319 317 316 314 316 314 315 313 316 315 314 311 312 313 313 313 312 314 315 316 315 314 313 315 315 313 313 313 311 309 305 307 303 301 299 298 298
316 319 318 317 318 318 319 320 320 320 319 314 316 314 314 316 318 315 313 311 312 314 314 314 312 313 314 315 315 315 314 315 313 313 312 312 309 307 306 305 301 299 298 297 296
313 316 318 317 318 319 319 320 320 320 319 315 316 314 316 315 314 314 312 312 312 313 312 312 311 312 314 314 313 315 314 314 313 312 311 309 310 306 302 300 298 298 297 296 295
312 314 316 317 317 318 319 319 319 318 319 315 316 315 318 318 314 311 311 313 311 313 312 311 312 312 313 315 314 314 314 312 312 313 311 309 307 307 302 299 298 298 297 296 296
311 312 314 316 316 317 318 318 317 317 318 314 316 317 319 317 314 310 311 312 310 311 312 310 311 312 313 314 313 312 313 312 312 311 312 307 308 308 302 299 298 297 296 296 296
310 311 312 315 316 317 318 318 315 317 318 314 316 318 317 314 313 311 310 312 311 310 311 310 311 311 312 312 313 313 312 313 313 311 311 308 310 306 300 300 298 295 294 295 294
309 309 311 314 315 316 318 317 316 317 316 314 318 317 318 313 315 314 311 310 310 311 310 310 311 312 311 313 311 309 313 312 309 310 311 308 308 305 299 299 297 293 293 292 291
310 309 310 313 315 315 317 317 316 317 316 316 316 316 313 315 316 314 311 310 310 311 312 312 306 308 308 311 316 312 309 307 308 310 310 310 309 303 302 297 296 293 292 291 291
311 310 310 312 316 314 315 316 312 311 312 314 312 315 315 316 315 312 310 310 311 312 315 312 312 315 313 308 309 309 309 308 308 310 309 308 310 304 303 297 294 292 291 290 290
314 311 310 312 317 314 311 307 311 311 309 309 310 313 314 314 312 311 309 311 312 315 313 311 314 313 311 310 309 309 310 309 308 308 308 307 307 306 303 300 298 294 290 290 291
315 315 313 313 317 310 308 308 308 310 309 310 313 315 316 311 312 311 308 310 313 313 313 314 314 308 308 308 308 308 310 308 308 307 304 304 304 306 302 300 294 293 292 290 290
315 316 316 316 311 309 312 307 310 310 306 309 312 314 310 309 311 308 307 309 312 314 312 309 308 308 307 308 307 308 307 307 307 305 306 302 306 304 298 298 295 294 291 289 289
315 315 316 318 308 308 310 307 308 309 305 308 315 311 310 310 310 311 307 308 314 312 312 314 305 307 307 307 307 307 305 305 305 304 303 303 302 303 298 298 296 294 291 289 289
314 315 314 316 306 308 305 306 309 309 310 313 314 312 311 310 311 310 309 306 307 307 306 309 306 305 306 307 307 306 306 304 302 301 303 303 302 300 297 299 298 295 290 289 288
314 313 313 315 308 308 306 308 305 308 308 314 316 314 313 313 311 311 311 309 315 316 313 309 307 305 307 307 307 307 303 308 307 304 309 299 300 307 301 298 297 296 291 288 288
313 313 313 314 311 306 310 308 309 306 310 313 313 312 314 312 314 311 310 312 309 310 308 312 313 306 305 306 308 307 304 309 309 309 314 300 305 305 295 292 295 294 290 288 287
313 313 313 313 315 308 301 309 312 309 309 314 313 314 313 314 316 309 308 309 310 307 313 309 309 302 301 302 303 304 302 302 302 286 295 301 299 299 292 291 290 289 289 288 287
314 312 312 313 313 307 301 312 311 309 312 313 313 314 315 315 313 309 308 307 310 306 308 310 311 302 299 300 299 301 300 303 301 307 305 304 303 307 293 291 289 289 288 287 287
313 311 310 311 309 306 312 309 310 310 311 313 314 313 313 314 311 308 311 310 307 304 303 302 308 304 298 299 303 297 299 298 299 308 309 309 314 298 296 294 290 290 289 287 287
311 312 308 307 311 305 313 309 308 309 309 311 312 311 313 312 310 311 312 312 304 301 305 302 303 305 301 298 296 300 302 302 303 305 302 306 310 298 296 294 292 290 289 287 287
311 308 307 307 313 312 309 311 310 309 310 311 311 311 310 311 312 312 311 309 302 304 303 300 302 304 308 300 294 295 295 300 298 301 306 308 311 292 292 291 290 289 288 287 286
310 311 309 307 309 310 311 313 313 310 310 309 310 309 311 311 311 311 311 304 301 303 306 304 303 308 314 311 300 297 293 295 300 304 306 306 306 305 296 290 288 287 287 286 286
311 310 308 311 309 312 311 310 311 313 310 309 310 310 311 311 311 312 310 302 299 300 300 302 307 303 308 309 303 306 308 298 298 302 305 308 308 306 305 299 289 289 287 286 286
315 313 306 305 308 310 311 312 312 309 310 312 311 309 310 311 310 309 311 305 308 297 296 296 305 303 305 304 302 304 305 305 304 304 303 303 304 304 303 291 289 287 287 287 287
315 311 312 313 308 310 311 311 311 310 310 310 311 311 310 311 310 310 306 306 308 304 297 297 300 302 311 305 303 306 305 304 305 304 304 303 303 303 300 290 288 287 288 288 286

GFSSW_925_thetae_009.txt.gz
Theta_e
318 316 315 317 316 315 317 317 317 318 315 315 314 316 315 317 313 312 312 312 312 312 313 314 314 314 314 315 314 311 315 316 314 313 314 312 311 306 303 303 302 301 302 302 301
318 318 316 316 317 317 317 318 318 318 317 314 315 316 316 315 315 313 312 311 312 313 313 312 311 311 312 315 313 312 314 316 313 311 313 313 311 306 306 303 302 300 299 300 300
316 318 318 317 317 318 318 319 319 318 318 315 316 314 315 313 315 314 312 311 312 313 313 313 312 312 314 314 313 312 311 314 314 312 311 312 309 306 305 306 301 299 297 297 297
313 315 317 318 317 317 318 318 318 317 318 316 316 314 314 315 316 314 313 311 312 313 313 312 310 311 313 314 313 315 313 313 313 313 311 310 307 307 305 307 302 299 297 296 295
311 312 314 316 317 317 318 318 318 317 317 316 316 314 316 315 312 314 312 312 311 313 311 311 311 310 312 313 313 314 314 313 311 310 310 308 309 308 303 300 298 297 296 295 294
309 311 312 313 315 316 317 317 317 316 316 316 315 315 317 317 314 312 310 312 310 312 311 310 311 311 313 315 313 312 313 311 310 311 308 310 308 306 302 297 296 296 295 294 294
309 309 310 311 313 314 316 316 316 315 316 315 315 316 318 315 314 310 311 312 310 311 311 310 310 311 312 312 311 311 312 310 311 310 311 307 309 307 301 297 297 296 295 295 294
310 309 309 310 312 313 314 314 314 315 316 314 315 316 313 314 313 311 310 311 310 310 311 310 310 311 311 311 311 312 311 312 312 309 309 308 310 308 300 298 298 296 294 294 293
311 310 309 309 311 313 314 314 313 315 316 312 316 316 315 313 314 313 311 310 309 310 310 310 311 310 309 311 311 308 313 312 310 308 309 307 308 307 299 299 298 295 294 294 292
312 310 310 309 310 315 314 314 315 316 315 315 315 315 312 314 315 314 311 310 310 310 312 312 305 308 307 310 316 315 310 308 307 309 309 309 308 307 300 299 299 296 293 292 290
314 313 310 309 310 315 314 315 310 309 311 311 311 314 314 315 315 312 310 310 310 311 314 311 312 312 311 310 311 309 308 307 306 308 310 308 309 309 302 298 297 293 293 292 290
314 314 313 310 311 315 312 308 310 310 309 308 308 310 313 314 313 311 309 310 311 314 312 312 313 312 311 308 309 308 309 308 307 307 307 307 306 307 303 302 300 298 294 293 289
313 314 314 311 314 311 309 308 309 309 308 307 311 313 314 312 312 310 307 308 312 312 312 314 313 309 309 308 308 307 308 307 307 305 303 301 302 304 304 302 301 299 295 292 291
312 313 315 312 312 308 311 307 309 310 303 306 312 313 310 309 311 308 306 309 311 313 311 310 308 308 308 308 306 307 306 306 307 305 306 302 309 304 302 301 299 298 292 292 289
311 313 314 316 314 307 310 307 308 307 304 307 314 310 309 310 309 310 306 309 313 311 311 315 306 306 307 306 305 308 305 305 305 305 303 303 303 303 299 300 301 296 293 292 290
310 312 313 313 312 308 306 306 308 307 307 308 312 311 311 310 310 309 308 305 305 310 307 309 305 303 305 306 306 305 305 304 298 300 304 304 304 302 301 301 300 296 294 291 289
310 312 312 313 310 308 306 306 307 306 306 309 315 312 311 311 310 310 309 308 312 314 312 309 307 305 306 308 307 305 306 311 310 305 311 300 300 308 305 301 298 298 293 290 289
310 311 312 312 312 309 308 307 310 304 305 311 313 312 314 311 312 310 310 311 309 311 309 314 314 306 304 306 308 305 307 311 312 309 311 299 306 307 299 293 291 292 293 290 288
311 312 311 312 313 312 301 307 311 309 305 312 312 313 312 311 312 310 308 309 311 307 316 310 310 302 303 303 305 305 304 304 306 285 297 305 301 300 293 292 290 292 290 288 288
311 312 310 311 312 308 301 310 308 307 308 312 311 312 313 313 312 310 309 308 311 306 309 310 312 302 299 300 297 302 300 304 301 303 303 306 306 310 302 297 290 289 289 289 287
312 311 309 311 310 307 315 311 308 308 311 312 311 308 312 313 312 309 312 310 307 305 305 305 309 304 299 301 304 299 300 300 301 305 307 303 311 303 304 298 291 290 290 288 287
312 311 307 308 312 309 312 308 308 308 308 309 310 311 311 311 311 310 311 311 306 303 307 303 306 307 303 297 296 300 303 302 305 304 300 305 311 295 298 297 291 291 290 288 287
311 310 306 305 312 311 306 309 309 307 309 309 310 310 309 310 311 309 310 308 304 305 304 302 305 305 309 302 296 295 298 301 300 300 308 307 310 296 295 294 291 290 289 288 286
311 311 308 305 309 309 308 310 310 308 309 307 308 308 309 310 310 311 309 307 303 304 308 306 306 308 312 309 300 298 297 297 303 306 309 309 308 308 306 302 292 289 288 287 286
311 312 309 311 309 311 309 308 308 310 308 308 308 309 309 310 310 310 310 306 300 301 304 305 311 305 310 311 305 306 307 296 300 304 308 310 309 308 308 308 305 300 289 287 286
315 314 307 311 308 309 310 311 310 308 309 310 309 307 309 310 308 309 311 309 310 298 299 297 309 309 310 308 304 306 308 307 305 304 306 307 307 307 308 306 304 295 288 287 287
314 313 311 313 311 310 310 310 310 309 309 308 309 310 309 309 309 309 307 307 308 308 298 297 303 301 311 307 306 309 309 308 308 308 308 309 308 307 306 302 293 289 288 288 288